contact:dominique.lefevre@mio.osupytheas.fr, maurice.libes@osupytheas.fr, didier.mallarino@osupytheas.fr
Project:EMSO http://www.emso-fr.org/EMSO-France
Depth: 2436.0 m
Title:EMSO Ligure Ouest : Data MII capteur MICROCAT
DateTime_Computer,Latitude,Longitude,Temperature,Conductivity,Pressure,DateTime_Instrument
DateTime_Computer,Latitude,Longitude,degC,S m-1,dbar,DateTime_Instrument
2021-12-20T00:01:09Z,42.805,6.029,13.3011,4.60032,2470.087,2021-12-20T02:02:38Z
2021-12-20T00:04:12Z,42.805,6.029,13.3018,4.60033,2470.147,2021-12-20T02:05:41Z
2021-12-20T00:07:15Z,42.805,6.029,13.3012,4.60032,2470.124,2021-12-20T02:08:44Z
2021-12-20T00:10:18Z,42.805,6.029,13.3014,4.60033,2470.124,2021-12-20T02:11:47Z
2021-12-20T00:13:21Z,42.805,6.029,13.3012,4.60039,2470.124,2021-12-20T02:14:50Z
2021-12-20T00:16:25Z,42.805,6.029,13.3006,4.60033,2470.11,2021-12-20T02:17:53Z
2021-12-20T00:19:28Z,42.805,6.029,13.3015,4.60035,2470.124,2021-12-20T02:20:57Z
2021-12-20T00:22:31Z,42.805,6.029,13.3007,4.60027,2470.11,2021-12-20T02:24:00Z
2021-12-20T00:25:34Z,42.805,6.029,13.3014,4.60034,2470.073,2021-12-20T02:27:03Z
2021-12-20T00:28:37Z,42.805,6.029,13.3013,4.60033,2470.124,2021-12-20T02:30:06Z
2021-12-20T00:31:40Z,42.805,6.029,13.3018,4.60032,2470.124,2021-12-20T02:33:09Z
2021-12-20T00:34:43Z,42.805,6.029,13.3014,4.60038,2470.1,2021-12-20T02:36:12Z
2021-12-20T00:37:46Z,42.805,6.029,13.3011,4.60033,2470.11,2021-12-20T02:39:15Z
2021-12-20T00:40:50Z,42.805,6.029,13.3014,4.60036,2470.087,2021-12-20T02:42:18Z
2021-12-20T00:43:53Z,42.805,6.029,13.3012,4.60035,2470.133,2021-12-20T02:45:22Z
2021-12-20T00:46:56Z,42.805,6.029,13.3005,4.60039,2470.133,2021-12-20T02:48:25Z
2021-12-20T00:49:59Z,42.805,6.029,13.3013,4.60039,2470.087,2021-12-20T02:51:28Z
2021-12-20T00:53:02Z,42.805,6.029,13.3009,4.60038,2470.124,2021-12-20T02:54:31Z
2021-12-20T00:56:05Z,42.805,6.029,13.3008,4.60034,2470.087,2021-12-20T02:57:34Z
2021-12-20T00:59:08Z,42.805,6.029,13.3008,4.60026,2470.087,2021-12-20T03:00:37Z
2021-12-20T01:02:11Z,42.805,6.029,13.3009,4.60031,2470.1,2021-12-20T03:03:40Z
2021-12-20T01:05:15Z,42.805,6.029,13.3015,4.60031,2470.1,2021-12-20T03:06:43Z
2021-12-20T01:08:18Z,42.805,6.029,13.3006,4.60033,2470.124,2021-12-20T03:09:47Z
2021-12-20T01:11:21Z,42.805,6.029,13.3016,4.60029,2470.11,2021-12-20T03:12:50Z
2021-12-20T01:14:24Z,42.805,6.029,13.3004,4.60027,2470.124,2021-12-20T03:15:53Z
2021-12-20T01:17:27Z,42.805,6.029,13.3009,4.60032,2470.11,2021-12-20T03:18:56Z
2021-12-20T01:20:30Z,42.805,6.029,13.3014,4.60030,2470.087,2021-12-20T03:21:59Z
2021-12-20T01:23:33Z,42.805,6.029,13.3010,4.60033,2470.11,2021-12-20T03:25:02Z
2021-12-20T01:26:36Z,42.805,6.029,13.3010,4.60032,2470.087,2021-12-20T03:28:05Z
2021-12-20T01:29:40Z,42.805,6.029,13.3011,4.60033,2470.11,2021-12-20T03:31:08Z
2021-12-20T01:32:43Z,42.805,6.029,13.3015,4.60029,2470.124,2021-12-20T03:34:12Z
2021-12-20T01:35:46Z,42.805,6.029,13.3014,4.60031,2470.124,2021-12-20T03:37:15Z
2021-12-20T01:38:49Z,42.805,6.029,13.3015,4.60041,2470.133,2021-12-20T03:40:18Z
2021-12-20T01:41:52Z,42.805,6.029,13.3011,4.60037,2470.063,2021-12-20T03:43:21Z
2021-12-20T01:44:55Z,42.805,6.029,13.3010,4.60039,2470.087,2021-12-20T03:46:24Z
2021-12-20T01:47:58Z,42.805,6.029,13.3016,4.60031,2470.124,2021-12-20T03:49:27Z
2021-12-20T01:51:01Z,42.805,6.029,13.3006,4.60042,2470.11,2021-12-20T03:52:30Z
2021-12-20T01:54:05Z,42.805,6.029,13.3010,4.60038,2470.133,2021-12-20T03:55:33Z
2021-12-20T01:57:08Z,42.805,6.029,13.3009,4.60049,2470.133,2021-12-20T03:58:37Z
2021-12-20T02:00:11Z,42.805,6.029,13.3010,4.60037,2470.147,2021-12-20T04:01:40Z
2021-12-20T02:03:14Z,42.805,6.029,13.3009,4.60029,2470.11,2021-12-20T04:04:43Z
2021-12-20T02:06:17Z,42.805,6.029,13.3006,4.60031,2470.1,2021-12-20T04:07:46Z
2021-12-20T02:09:20Z,42.805,6.029,13.3007,4.60026,2470.124,2021-12-20T04:10:49Z
2021-12-20T02:12:23Z,42.805,6.029,13.3009,4.60029,2470.11,2021-12-20T04:13:52Z
2021-12-20T02:15:26Z,42.805,6.029,13.3005,4.60036,2470.133,2021-12-20T04:16:55Z
2021-12-20T02:18:30Z,42.805,6.029,13.3012,4.60028,2470.124,2021-12-20T04:19:58Z
2021-12-20T02:21:33Z,42.805,6.029,13.3011,4.60033,2470.124,2021-12-20T04:23:02Z
2021-12-20T02:24:36Z,42.805,6.029,13.3006,4.60051,2470.171,2021-12-20T04:26:05Z
2021-12-20T02:27:39Z,42.805,6.029,13.3011,4.60035,2470.156,2021-12-20T04:29:08Z
2021-12-20T02:30:42Z,42.805,6.029,13.3010,4.60036,2470.124,2021-12-20T04:32:11Z
2021-12-20T02:33:45Z,42.805,6.029,13.3013,4.60036,2470.147,2021-12-20T04:35:14Z
2021-12-20T02:36:48Z,42.805,6.029,13.3011,4.60033,2470.124,2021-12-20T04:38:17Z
2021-12-20T02:39:51Z,42.805,6.029,13.3014,4.60033,2470.156,2021-12-20T04:41:20Z
2021-12-20T02:42:55Z,42.805,6.029,13.3011,4.60029,2470.124,2021-12-20T04:44:23Z
2021-12-20T02:45:58Z,42.805,6.029,13.3014,4.60033,2470.171,2021-12-20T04:47:26Z
2021-12-20T02:49:01Z,42.805,6.029,13.3006,4.60030,2470.18,2021-12-20T04:50:30Z
2021-12-20T02:52:04Z,42.805,6.029,13.3010,4.60029,2470.171,2021-12-20T04:53:33Z
2021-12-20T02:55:07Z,42.805,6.029,13.3005,4.60036,2470.133,2021-12-20T04:56:36Z
2021-12-20T02:58:10Z,42.805,6.029,13.3007,4.60029,2470.147,2021-12-20T04:59:39Z
2021-12-20T03:01:13Z,42.805,6.029,13.3007,4.60039,2470.156,2021-12-20T05:02:42Z
2021-12-20T03:04:16Z,42.805,6.029,13.3007,4.60031,2470.171,2021-12-20T05:05:45Z
2021-12-20T03:07:20Z,42.805,6.029,13.3011,4.60044,2470.18,2021-12-20T05:08:48Z
2021-12-20T03:10:23Z,42.805,6.029,13.3003,4.60031,2470.133,2021-12-20T05:11:51Z
2021-12-20T03:13:26Z,42.805,6.029,13.3005,4.60033,2470.156,2021-12-20T05:14:55Z
2021-12-20T03:16:29Z,42.805,6.029,13.3009,4.60034,2470.18,2021-12-20T05:17:58Z
2021-12-20T03:19:32Z,42.805,6.029,13.3005,4.60038,2470.18,2021-12-20T05:21:01Z
2021-12-20T03:22:35Z,42.805,6.029,13.3014,4.60031,2470.171,2021-12-20T05:24:04Z
2021-12-20T03:25:38Z,42.805,6.029,13.3004,4.60039,2470.194,2021-12-20T05:27:07Z
2021-12-20T03:28:41Z,42.805,6.029,13.3009,4.60033,2470.194,2021-12-20T05:30:10Z
2021-12-20T03:31:45Z,42.805,6.029,13.3008,4.60025,2470.133,2021-12-20T05:33:13Z
2021-12-20T03:34:48Z,42.805,6.029,13.3012,4.60027,2470.18,2021-12-20T05:36:16Z
2021-12-20T03:37:51Z,42.805,6.029,13.3004,4.60041,2470.194,2021-12-20T05:39:20Z
2021-12-20T03:40:54Z,42.805,6.029,13.3005,4.60043,2470.171,2021-12-20T05:42:23Z
2021-12-20T03:43:57Z,42.805,6.029,13.3010,4.60036,2470.227,2021-12-20T05:45:26Z
2021-12-20T03:47:00Z,42.805,6.029,13.3011,4.60035,2470.194,2021-12-20T05:48:29Z
2021-12-20T03:50:03Z,42.805,6.029,13.3015,4.60036,2470.194,2021-12-20T05:51:32Z
2021-12-20T03:53:06Z,42.805,6.029,13.3006,4.60035,2470.217,2021-12-20T05:54:35Z
2021-12-20T03:56:10Z,42.805,6.029,13.3010,4.60031,2470.203,2021-12-20T05:57:38Z
2021-12-20T03:59:13Z,42.805,6.029,13.3014,4.60031,2470.18,2021-12-20T06:00:42Z
2021-12-20T04:02:16Z,42.805,6.029,13.3004,4.60033,2470.217,2021-12-20T06:03:45Z
2021-12-20T04:05:19Z,42.805,6.029,13.3011,4.60043,2470.18,2021-12-20T06:06:48Z
2021-12-20T04:08:22Z,42.805,6.029,13.3002,4.60039,2470.24,2021-12-20T06:09:51Z
2021-12-20T04:11:25Z,42.805,6.029,13.3014,4.60031,2470.24,2021-12-20T06:12:54Z
2021-12-20T04:14:28Z,42.805,6.029,13.3013,4.60031,2470.203,2021-12-20T06:15:57Z
2021-12-20T04:17:31Z,42.805,6.029,13.3003,4.60033,2470.227,2021-12-20T06:19:00Z
2021-12-20T04:20:34Z,42.805,6.029,13.3009,4.60035,2470.24,2021-12-20T06:22:03Z
2021-12-20T04:23:38Z,42.805,6.029,13.3011,4.60040,2470.24,2021-12-20T06:25:06Z
2021-12-20T04:26:41Z,42.805,6.029,13.3008,4.60026,2470.24,2021-12-20T06:28:10Z
2021-12-20T04:29:44Z,42.805,6.029,13.3008,4.60055,2470.264,2021-12-20T06:31:13Z
2021-12-20T04:32:47Z,42.805,6.029,13.3023,4.60031,2470.24,2021-12-20T06:34:16Z
2021-12-20T04:35:50Z,42.805,6.029,13.3009,4.60035,2470.227,2021-12-20T06:37:19Z
2021-12-20T04:38:53Z,42.805,6.029,13.3013,4.60034,2470.227,2021-12-20T06:40:22Z
2021-12-20T04:41:56Z,42.805,6.029,13.3010,4.60037,2470.25,2021-12-20T06:43:25Z
2021-12-20T04:44:59Z,42.805,6.029,13.3010,4.60031,2470.227,2021-12-20T06:46:28Z
2021-12-20T04:48:03Z,42.805,6.029,13.3009,4.60027,2470.227,2021-12-20T06:49:31Z
2021-12-20T04:51:06Z,42.805,6.029,13.3009,4.60038,2470.273,2021-12-20T06:52:35Z
2021-12-20T04:54:09Z,42.805,6.029,13.3011,4.60039,2470.25,2021-12-20T06:55:38Z
2021-12-20T04:57:12Z,42.805,6.029,13.3006,4.60031,2470.26,2021-12-20T06:58:41Z
2021-12-20T05:00:15Z,42.805,6.029,13.3002,4.60033,2470.287,2021-12-20T07:01:44Z
2021-12-20T05:03:18Z,42.805,6.029,13.3008,4.60033,2470.273,2021-12-20T07:04:47Z
2021-12-20T05:06:21Z,42.805,6.029,13.3009,4.60026,2470.297,2021-12-20T07:07:50Z
2021-12-20T05:09:24Z,42.805,6.029,13.3009,4.60033,2470.31,2021-12-20T07:10:53Z
2021-12-20T05:12:28Z,42.805,6.029,13.3004,4.60030,2470.297,2021-12-20T07:13:56Z
2021-12-20T05:15:31Z,42.805,6.029,13.3004,4.60028,2470.273,2021-12-20T07:17:00Z
2021-12-20T05:18:34Z,42.805,6.029,13.3011,4.60032,2470.31,2021-12-20T07:20:03Z
2021-12-20T05:21:37Z,42.805,6.029,13.3006,4.60033,2470.297,2021-12-20T07:23:06Z
2021-12-20T05:24:40Z,42.805,6.029,13.3011,4.60035,2470.31,2021-12-20T07:26:09Z
2021-12-20T05:27:43Z,42.805,6.029,13.3000,4.60035,2470.31,2021-12-20T07:29:12Z
2021-12-20T05:33:49Z,42.805,6.029,13.3009,4.60026,2470.334,2021-12-20T07:35:18Z
2021-12-20T05:36:52Z,42.805,6.029,13.3003,4.60031,2470.32,2021-12-20T07:38:21Z
2021-12-20T05:39:56Z,42.805,6.029,13.3005,4.60037,2470.343,2021-12-20T07:41:24Z
2021-12-20T05:42:59Z,42.805,6.029,13.3012,4.60029,2470.297,2021-12-20T07:44:28Z
2021-12-20T05:46:02Z,42.805,6.029,13.3008,4.60032,2470.334,2021-12-20T07:47:31Z
2021-12-20T05:49:05Z,42.805,6.029,13.3004,4.60033,2470.38,2021-12-20T07:50:34Z
2021-12-20T05:52:08Z,42.805,6.029,13.3013,4.60036,2470.334,2021-12-20T07:53:37Z
2021-12-20T05:55:11Z,42.805,6.029,13.3009,4.60029,2470.334,2021-12-20T07:56:40Z
2021-12-20T05:58:14Z,42.805,6.029,13.3002,4.60039,2470.343,2021-12-20T07:59:43Z
2021-12-20T06:01:17Z,42.805,6.029,13.3010,4.60035,2470.334,2021-12-20T08:02:46Z
2021-12-20T06:04:21Z,42.805,6.029,13.3009,4.60029,2470.357,2021-12-20T08:05:49Z
2021-12-20T06:07:24Z,42.805,6.029,13.3005,4.60036,2470.32,2021-12-20T08:08:53Z
2021-12-20T06:10:27Z,42.805,6.029,13.3005,4.60028,2470.357,2021-12-20T08:11:56Z
2021-12-20T06:13:30Z,42.805,6.029,13.3003,4.60031,2470.334,2021-12-20T08:14:59Z
2021-12-20T06:16:33Z,42.805,6.029,13.3007,4.60039,2470.366,2021-12-20T08:18:02Z
2021-12-20T06:19:36Z,42.805,6.029,13.3011,4.60027,2470.38,2021-12-20T08:21:05Z
2021-12-20T06:22:39Z,42.805,6.029,13.3000,4.60035,2470.38,2021-12-20T08:24:08Z
2021-12-20T06:25:42Z,42.805,6.029,13.3005,4.60032,2470.39,2021-12-20T08:27:11Z
2021-12-20T06:28:46Z,42.805,6.029,13.3004,4.60029,2470.366,2021-12-20T08:30:14Z
2021-12-20T06:31:49Z,42.805,6.029,13.3007,4.60032,2470.38,2021-12-20T08:33:18Z
2021-12-20T06:34:52Z,42.805,6.029,13.3008,4.60037,2470.38,2021-12-20T08:36:21Z
2021-12-20T06:37:55Z,42.805,6.029,13.3004,4.60039,2470.357,2021-12-20T08:39:24Z
2021-12-20T06:40:58Z,42.805,6.029,13.3011,4.60030,2470.357,2021-12-20T08:42:27Z
2021-12-20T06:44:01Z,42.805,6.029,13.3006,4.60033,2470.38,2021-12-20T08:45:30Z
2021-12-20T06:47:04Z,42.805,6.029,13.3014,4.60029,2470.39,2021-12-20T08:48:33Z
2021-12-20T06:50:07Z,42.805,6.029,13.3009,4.60033,2470.39,2021-12-20T08:51:36Z
2021-12-20T06:53:11Z,42.805,6.029,13.3002,4.60029,2470.404,2021-12-20T08:54:39Z
2021-12-20T06:56:14Z,42.805,6.029,13.3012,4.60031,2470.39,2021-12-20T08:57:43Z
2021-12-20T06:59:17Z,42.805,6.029,13.3004,4.60029,2470.366,2021-12-20T09:00:46Z
2021-12-20T07:02:20Z,42.805,6.029,13.3007,4.60027,2470.39,2021-12-20T09:03:49Z
2021-12-20T07:05:23Z,42.805,6.029,13.3001,4.60037,2470.39,2021-12-20T09:06:52Z
2021-12-20T07:08:26Z,42.805,6.029,13.3008,4.60031,2470.413,2021-12-20T09:09:55Z
2021-12-20T07:11:29Z,42.805,6.029,13.3004,4.60031,2470.437,2021-12-20T09:12:58Z
2021-12-20T07:14:32Z,42.805,6.029,13.3003,4.60025,2470.437,2021-12-20T09:16:01Z
2021-12-20T07:17:36Z,42.805,6.029,13.3004,4.60049,2470.39,2021-12-20T09:19:04Z
2021-12-20T07:20:39Z,42.805,6.029,13.3004,4.60028,2470.413,2021-12-20T09:22:07Z
2021-12-20T07:23:42Z,42.805,6.029,13.3006,4.60028,2470.45,2021-12-20T09:25:11Z
2021-12-20T07:26:45Z,42.805,6.029,13.3010,4.60030,2470.413,2021-12-20T09:28:14Z
2021-12-20T07:29:48Z,42.805,6.029,13.3015,4.60031,2470.39,2021-12-20T09:31:17Z
2021-12-20T07:32:51Z,42.805,6.029,13.3007,4.60029,2470.376,2021-12-20T09:34:20Z
2021-12-20T07:35:54Z,42.805,6.029,13.3008,4.60026,2470.437,2021-12-20T09:37:23Z
2021-12-20T07:38:57Z,42.805,6.029,13.3006,4.60029,2470.404,2021-12-20T09:40:26Z
2021-12-20T07:42:00Z,42.805,6.029,13.3011,4.60031,2470.413,2021-12-20T09:43:29Z
2021-12-20T07:45:04Z,42.805,6.029,13.3011,4.60031,2470.45,2021-12-20T09:46:32Z
2021-12-20T07:48:07Z,42.805,6.029,13.3010,4.60031,2470.404,2021-12-20T09:49:36Z
2021-12-20T07:51:10Z,42.805,6.029,13.3009,4.60026,2470.427,2021-12-20T09:52:39Z
2021-12-20T07:54:13Z,42.805,6.029,13.3009,4.60038,2470.413,2021-12-20T09:55:42Z
2021-12-20T07:57:16Z,42.805,6.029,13.3006,4.60032,2470.413,2021-12-20T09:58:45Z
2021-12-20T08:00:19Z,42.805,6.029,13.3008,4.60029,2470.413,2021-12-20T10:01:48Z
2021-12-20T08:03:22Z,42.805,6.029,13.3009,4.60029,2470.39,2021-12-20T10:04:51Z
2021-12-20T08:06:25Z,42.805,6.029,13.3006,4.60032,2470.399,2021-12-20T10:07:54Z
2021-12-20T08:09:29Z,42.805,6.029,13.3011,4.60031,2470.39,2021-12-20T10:10:57Z
2021-12-20T08:12:32Z,42.805,6.029,13.3004,4.60031,2470.413,2021-12-20T10:14:01Z
2021-12-20T08:15:35Z,42.805,6.029,13.3009,4.60031,2470.427,2021-12-20T10:17:04Z
2021-12-20T08:18:38Z,42.805,6.029,13.3006,4.60031,2470.413,2021-12-20T10:20:07Z
2021-12-20T08:21:41Z,42.805,6.029,13.3010,4.60034,2470.427,2021-12-20T10:23:10Z
2021-12-20T08:24:44Z,42.805,6.029,13.3011,4.60031,2470.404,2021-12-20T10:26:13Z
2021-12-20T08:27:47Z,42.805,6.029,13.3013,4.60035,2470.437,2021-12-20T10:29:16Z
2021-12-20T08:30:51Z,42.805,6.029,13.3009,4.60032,2470.427,2021-12-20T10:32:19Z
2021-12-20T08:33:54Z,42.805,6.029,13.3009,4.60029,2470.427,2021-12-20T10:35:23Z
2021-12-20T08:36:57Z,42.805,6.029,13.3005,4.60031,2470.39,2021-12-20T10:38:26Z
2021-12-20T08:40:00Z,42.805,6.029,13.3007,4.60033,2470.427,2021-12-20T10:41:29Z
2021-12-20T08:43:03Z,42.805,6.029,13.3013,4.60030,2470.39,2021-12-20T10:44:32Z
2021-12-20T08:46:06Z,42.805,6.029,13.3006,4.60029,2470.437,2021-12-20T10:47:35Z
2021-12-20T08:49:09Z,42.805,6.029,13.3007,4.60031,2470.404,2021-12-20T10:50:38Z
2021-12-20T08:52:12Z,42.805,6.029,13.3010,4.60032,2470.427,2021-12-20T10:53:41Z
2021-12-20T08:55:16Z,42.805,6.029,13.3011,4.60033,2470.474,2021-12-20T10:56:44Z
2021-12-20T08:58:19Z,42.805,6.029,13.3006,4.60029,2470.45,2021-12-20T10:59:48Z
2021-12-20T09:01:22Z,42.805,6.029,13.3009,4.60029,2470.437,2021-12-20T11:02:51Z
2021-12-20T09:04:25Z,42.805,6.029,13.3007,4.60026,2470.45,2021-12-20T11:05:54Z
2021-12-20T09:07:28Z,42.805,6.029,13.3009,4.60034,2470.39,2021-12-20T11:08:57Z
2021-12-20T09:10:31Z,42.805,6.029,13.3013,4.60026,2470.427,2021-12-20T11:12:00Z
2021-12-20T09:13:34Z,42.805,6.029,13.3011,4.60033,2470.427,2021-12-20T11:15:03Z
2021-12-20T09:16:37Z,42.805,6.029,13.3008,4.60028,2470.427,2021-12-20T11:18:06Z
2021-12-20T09:19:41Z,42.805,6.029,13.3011,4.60031,2470.427,2021-12-20T11:21:09Z
2021-12-20T09:22:44Z,42.805,6.029,13.3009,4.60033,2470.437,2021-12-20T11:24:13Z
2021-12-20T09:25:47Z,42.805,6.029,13.3007,4.60034,2470.45,2021-12-20T11:27:16Z
2021-12-20T09:28:50Z,42.805,6.029,13.3006,4.60026,2470.437,2021-12-20T11:30:19Z
2021-12-20T09:31:53Z,42.805,6.029,13.3007,4.60034,2470.366,2021-12-20T11:33:22Z
2021-12-20T09:34:56Z,42.805,6.029,13.3003,4.60031,2470.413,2021-12-20T11:36:25Z
2021-12-20T09:37:59Z,42.805,6.029,13.3002,4.60033,2470.437,2021-12-20T11:39:28Z
2021-12-20T09:41:02Z,42.805,6.029,13.3008,4.60033,2470.404,2021-12-20T11:42:31Z
2021-12-20T09:44:06Z,42.805,6.029,13.3006,4.60031,2470.413,2021-12-20T11:45:34Z
2021-12-20T09:47:09Z,42.805,6.029,13.3011,4.60030,2470.45,2021-12-20T11:48:38Z
2021-12-20T09:50:12Z,42.805,6.029,13.3012,4.60034,2470.413,2021-12-20T11:51:41Z
2021-12-20T09:53:15Z,42.805,6.029,13.3006,4.60032,2470.437,2021-12-20T11:54:44Z
2021-12-20T09:56:18Z,42.805,6.029,13.3009,4.60028,2470.404,2021-12-20T11:57:47Z
2021-12-20T09:59:21Z,42.805,6.029,13.3007,4.60028,2470.427,2021-12-20T12:00:50Z
2021-12-20T10:02:24Z,42.805,6.029,13.3010,4.60033,2470.39,2021-12-20T12:03:53Z
2021-12-20T10:05:28Z,42.805,6.029,13.3011,4.60029,2470.413,2021-12-20T12:06:56Z
2021-12-20T10:08:31Z,42.805,6.029,13.3006,4.60026,2470.404,2021-12-20T12:10:00Z
2021-12-20T10:11:34Z,42.805,6.029,13.3001,4.60027,2470.404,2021-12-20T12:13:03Z
2021-12-20T10:14:37Z,42.805,6.029,13.3010,4.60029,2470.366,2021-12-20T12:16:06Z
2021-12-20T10:17:40Z,42.805,6.029,13.3006,4.60028,2470.413,2021-12-20T12:19:09Z
2021-12-20T10:20:43Z,42.805,6.029,13.3012,4.60031,2470.404,2021-12-20T12:22:12Z
2021-12-20T10:23:46Z,42.805,6.029,13.3013,4.60034,2470.366,2021-12-20T12:25:15Z
2021-12-20T10:26:49Z,42.805,6.029,13.3011,4.60029,2470.366,2021-12-20T12:28:18Z
2021-12-20T10:29:53Z,42.805,6.029,13.3004,4.60026,2470.413,2021-12-20T12:31:21Z
2021-12-20T10:32:56Z,42.805,6.029,13.3012,4.60034,2470.38,2021-12-20T12:34:25Z
2021-12-20T10:35:59Z,42.805,6.029,13.3010,4.60027,2470.39,2021-12-20T12:37:28Z
2021-12-20T10:39:02Z,42.805,6.029,13.3015,4.60034,2470.404,2021-12-20T12:40:31Z
2021-12-20T10:42:05Z,42.805,6.029,13.3006,4.60029,2470.343,2021-12-20T12:43:34Z
2021-12-20T10:45:08Z,42.805,6.029,13.3010,4.60029,2470.404,2021-12-20T12:46:37Z
2021-12-20T10:48:11Z,42.805,6.029,13.3011,4.60029,2470.404,2021-12-20T12:49:40Z
2021-12-20T10:51:14Z,42.805,6.029,13.3007,4.60031,2470.413,2021-12-20T12:52:43Z
2021-12-20T10:54:18Z,42.805,6.029,13.3005,4.60031,2470.39,2021-12-20T12:55:46Z
2021-12-20T10:57:21Z,42.805,6.029,13.3011,4.60029,2470.427,2021-12-20T12:58:50Z
2021-12-20T11:00:24Z,42.805,6.029,13.3015,4.60031,2470.366,2021-12-20T13:01:53Z
2021-12-20T11:03:27Z,42.805,6.029,13.3020,4.60036,2470.366,2021-12-20T13:04:56Z
2021-12-20T11:06:30Z,42.805,6.029,13.3009,4.60026,2470.366,2021-12-20T13:07:59Z
2021-12-20T11:09:33Z,42.805,6.029,13.3013,4.60025,2470.39,2021-12-20T13:11:02Z
2021-12-20T11:12:36Z,42.805,6.029,13.3011,4.60029,2470.357,2021-12-20T13:14:05Z
2021-12-20T11:15:39Z,42.805,6.029,13.3011,4.60026,2470.334,2021-12-20T13:17:08Z
2021-12-20T11:18:43Z,42.805,6.029,13.3015,4.60031,2470.38,2021-12-20T13:20:11Z
2021-12-20T11:21:46Z,42.805,6.029,13.3012,4.60031,2470.32,2021-12-20T13:23:15Z
2021-12-20T11:24:49Z,42.805,6.029,13.3011,4.60027,2470.32,2021-12-20T13:26:18Z
2021-12-20T11:27:52Z,42.805,6.029,13.3006,4.60030,2470.38,2021-12-20T13:29:21Z
2021-12-20T11:30:55Z,42.805,6.029,13.3009,4.60029,2470.32,2021-12-20T13:32:24Z
2021-12-20T11:33:58Z,42.805,6.029,13.3010,4.60031,2470.343,2021-12-20T13:35:27Z
2021-12-20T11:37:01Z,42.805,6.029,13.3013,4.60031,2470.32,2021-12-20T13:38:30Z
2021-12-20T11:40:04Z,42.805,6.029,13.3014,4.60033,2470.297,2021-12-20T13:41:33Z
2021-12-20T11:43:08Z,42.805,6.029,13.3011,4.60028,2470.32,2021-12-20T13:44:36Z
2021-12-20T11:46:11Z,42.805,6.029,13.3013,4.60029,2470.32,2021-12-20T13:47:40Z
2021-12-20T11:49:14Z,42.805,6.029,13.3009,4.60027,2470.31,2021-12-20T13:50:43Z
2021-12-20T11:52:17Z,42.805,6.029,13.3011,4.60033,2470.334,2021-12-20T13:53:46Z
2021-12-20T11:55:20Z,42.805,6.029,13.3011,4.60030,2470.32,2021-12-20T13:56:49Z
2021-12-20T11:58:23Z,42.805,6.029,13.3006,4.60029,2470.357,2021-12-20T13:59:52Z
2021-12-20T12:01:26Z,42.805,6.029,13.3006,4.60032,2470.334,2021-12-20T14:02:55Z
2021-12-20T12:04:30Z,42.805,6.029,13.3009,4.60026,2470.334,2021-12-20T14:05:58Z
2021-12-20T12:07:33Z,42.805,6.029,13.3005,4.60029,2470.297,2021-12-20T14:09:02Z
2021-12-20T12:10:36Z,42.805,6.029,13.3006,4.60027,2470.32,2021-12-20T14:12:05Z
2021-12-20T12:13:39Z,42.805,6.029,13.3014,4.60031,2470.297,2021-12-20T14:15:08Z
2021-12-20T12:16:42Z,42.805,6.029,13.3009,4.60031,2470.32,2021-12-20T14:18:11Z
2021-12-20T12:19:45Z,42.805,6.029,13.3011,4.60026,2470.32,2021-12-20T14:21:14Z
2021-12-20T12:22:48Z,42.805,6.029,13.3008,4.60033,2470.32,2021-12-20T14:24:17Z
2021-12-20T12:25:51Z,42.805,6.029,13.3009,4.60029,2470.273,2021-12-20T14:27:20Z
2021-12-20T12:28:55Z,42.805,6.029,13.3013,4.60027,2470.297,2021-12-20T14:30:23Z
2021-12-20T12:31:58Z,42.805,6.029,13.3011,4.60036,2470.32,2021-12-20T14:33:27Z
2021-12-20T12:35:01Z,42.805,6.029,13.3009,4.60033,2470.25,2021-12-20T14:36:30Z
2021-12-20T12:38:04Z,42.805,6.029,13.3010,4.60031,2470.32,2021-12-20T14:39:33Z
2021-12-20T12:41:07Z,42.805,6.029,13.3015,4.60033,2470.297,2021-12-20T14:42:36Z
2021-12-20T12:44:10Z,42.805,6.029,13.3014,4.60035,2470.25,2021-12-20T14:45:39Z
2021-12-20T12:47:13Z,42.805,6.029,13.3005,4.60035,2470.287,2021-12-20T14:48:42Z
2021-12-20T12:50:16Z,42.805,6.029,13.3010,4.60031,2470.287,2021-12-20T14:51:45Z
2021-12-20T12:53:20Z,42.805,6.029,13.3010,4.60029,2470.287,2021-12-20T14:54:48Z
2021-12-20T12:56:23Z,42.805,6.029,13.3004,4.60027,2470.273,2021-12-20T14:57:52Z
2021-12-20T12:59:26Z,42.805,6.029,13.3017,4.60031,2470.25,2021-12-20T15:00:55Z
2021-12-20T13:02:29Z,42.805,6.029,13.3010,4.60031,2470.287,2021-12-20T15:03:58Z
2021-12-20T13:05:32Z,42.805,6.029,13.3014,4.60031,2470.273,2021-12-20T15:07:01Z
2021-12-20T13:08:35Z,42.805,6.029,13.3007,4.60030,2470.334,2021-12-20T15:10:04Z
2021-12-20T13:11:38Z,42.805,6.029,13.3009,4.60032,2470.287,2021-12-20T15:13:07Z
2021-12-20T13:14:41Z,42.805,6.029,13.3005,4.60028,2470.264,2021-12-20T15:16:10Z
2021-12-20T13:17:45Z,42.805,6.029,13.3011,4.60029,2470.25,2021-12-20T15:19:13Z
2021-12-20T13:20:48Z,42.805,6.029,13.3006,4.60031,2470.287,2021-12-20T15:22:17Z
2021-12-20T13:23:51Z,42.805,6.029,13.3014,4.60029,2470.287,2021-12-20T15:25:20Z
2021-12-20T13:26:54Z,42.805,6.029,13.3008,4.60029,2470.297,2021-12-20T15:28:23Z
2021-12-20T13:29:57Z,42.805,6.029,13.3011,4.60032,2470.31,2021-12-20T15:31:26Z
2021-12-20T13:33:00Z,42.805,6.029,13.3014,4.60033,2470.25,2021-12-20T15:34:29Z
2021-12-20T13:36:03Z,42.805,6.029,13.3011,4.60029,2470.25,2021-12-20T15:37:32Z
2021-12-20T13:39:06Z,42.805,6.029,13.3016,4.60033,2470.264,2021-12-20T15:40:35Z
2021-12-20T13:42:10Z,42.805,6.029,13.3013,4.60034,2470.264,2021-12-20T15:43:39Z
2021-12-20T13:45:13Z,42.805,6.029,13.3009,4.60044,2470.227,2021-12-20T15:46:42Z
2021-12-20T13:48:16Z,42.805,6.029,13.3009,4.60032,2470.227,2021-12-20T15:49:45Z
2021-12-20T13:51:19Z,42.805,6.029,13.3011,4.60027,2470.287,2021-12-20T15:52:48Z
2021-12-20T13:54:22Z,42.805,6.029,13.3006,4.60032,2470.264,2021-12-20T15:55:51Z
2021-12-20T13:57:25Z,42.805,6.029,13.3006,4.60031,2470.31,2021-12-20T15:58:54Z
2021-12-20T14:00:28Z,42.805,6.029,13.3017,4.60029,2470.297,2021-12-20T16:01:57Z
2021-12-20T14:03:31Z,42.805,6.029,13.3014,4.60031,2470.287,2021-12-20T16:05:00Z
2021-12-20T14:06:35Z,42.805,6.029,13.3011,4.60031,2470.25,2021-12-20T16:08:04Z
2021-12-20T14:09:38Z,42.805,6.029,13.3011,4.60033,2470.24,2021-12-20T16:11:07Z
2021-12-20T14:12:41Z,42.805,6.029,13.3010,4.60033,2470.227,2021-12-20T16:14:10Z
2021-12-20T14:15:44Z,42.805,6.029,13.3011,4.60029,2470.24,2021-12-20T16:17:13Z
2021-12-20T14:18:47Z,42.805,6.029,13.3012,4.60036,2470.25,2021-12-20T16:20:16Z
2021-12-20T14:21:50Z,42.805,6.029,13.3011,4.60030,2470.25,2021-12-20T16:23:19Z
2021-12-20T14:24:53Z,42.805,6.029,13.3013,4.60038,2470.24,2021-12-20T16:26:22Z
2021-12-20T14:27:57Z,42.805,6.029,13.3014,4.60036,2470.24,2021-12-20T16:29:25Z
2021-12-20T14:31:00Z,42.805,6.029,13.3011,4.60035,2470.227,2021-12-20T16:32:29Z
2021-12-20T14:34:03Z,42.805,6.029,13.3012,4.60031,2470.264,2021-12-20T16:35:32Z
2021-12-20T14:37:06Z,42.805,6.029,13.3014,4.60032,2470.24,2021-12-20T16:38:35Z
2021-12-20T14:40:09Z,42.805,6.029,13.3014,4.60033,2470.25,2021-12-20T16:41:38Z
2021-12-20T14:43:12Z,42.805,6.029,13.3015,4.60038,2470.273,2021-12-20T16:44:41Z
2021-12-20T14:46:15Z,42.805,6.029,13.3013,4.60036,2470.217,2021-12-20T16:47:44Z
2021-12-20T14:49:18Z,42.805,6.029,13.3014,4.60038,2470.25,2021-12-20T16:50:47Z
2021-12-20T14:52:22Z,42.805,6.029,13.3014,4.60035,2470.227,2021-12-20T16:53:50Z
2021-12-20T14:55:25Z,42.805,6.029,13.3015,4.60035,2470.264,2021-12-20T16:56:54Z
2021-12-20T14:58:28Z,42.805,6.029,13.3011,4.60033,2470.217,2021-12-20T16:59:57Z
2021-12-20T15:01:31Z,42.805,6.029,13.3016,4.60033,2470.24,2021-12-20T17:03:00Z
2021-12-20T15:04:34Z,42.805,6.029,13.3015,4.60039,2470.194,2021-12-20T17:06:03Z